{"data":{"norad_id":64610,"epoch":"2026-09-20T09:17:09.787776Z","epoch_age_seconds":141364,"freshness":"FRESH","line1":"1 64610U 25137S   26263.38691884  .00012100  00000+0  36855-3 0  9994","line2":"2 64610  53.1568 148.0693 0001267  77.5648 282.5497 15.34410105 70582","mean_motion":15.34410105,"eccentricity":0.0001267,"inclination_deg":53.1568,"raan_deg":148.0693,"arg_perigee_deg":77.5648,"mean_anomaly_deg":282.5497,"bstar":0.00036855,"rev_number":7058,"period_min":93.847140038223,"perigee_km":461.80647552928,"apogee_km":463.53993683552,"semimajor_km":6840.8102061824,"source":"CELESTRAK","updated_at":"2026-09-21T09:00:35.394262Z"}}